Location: Feydey
(46.3431°N, 7.0106°E)
Time: 09:04:54
(UTC+00:00)

NOSS 8 (F) - Pass Details

Date: 20 June 2021
Orbit: 377 x 1789 km, 63.3° (Epoch: 04 August)

Event Time Altitude Azimuth Distance (km) Brightness Sun altitude
Exits shadow 23:42:42 57° 72° (ENE) 478 4.5 -20.2°
Drops below altitude 10° 23:45:11 10° 44° (NE) 1,402 7.6 -20.2°
Sets 23:47:08 0° 41° (NE) 2,254 8.8 -20.2°
